Weather reports worldwide

Advertisment
Rheinstetten, Germany (10731): temperature & dewpoint: 12.01.2020 14:00:00 - 18.01.2020 14:00:00 (CET)Rheinstetten, Germany (10731): temperature 5cm & temperature -5cm: 12.01.2020 14:00:00 - 18.01.2020 14:00:00 (CET)Rheinstetten, Germany (10731): temperature -20cm & temperature -100cm: 12.01.2020 14:00:00 - 18.01.2020 14:00:00 (CET)Rheinstetten, Germany (10731): wind speed & gusts: 12.01.2020 14:00:00 - 18.01.2020 14:00:00 (CET)Rheinstetten, Germany (10731): wind direction: 12.01.2020 14:00:00 - 18.01.2020 14:00:00 (CET)Rheinstetten, Germany (10731): reduced air pressure: 12.01.2020 14:00:00 - 18.01.2020 14:00:00 (CET)Rheinstetten, Germany (10731): visibility: 12.01.2020 14:00:00 - 18.01.2020 14:00:00 (CET)Rheinstetten, Germany (10731): sunshine duration: 12.01.2020 14:00:00 - 18.01.2020 14:00:00 (CET)Rheinstetten, Germany (10731): precipitation: 12.01.2020 14:00:00 - 18.01.2020 14:00:00 (CET)
Date & Time tt [°C] td [°C] tt 5cm [°C] tt -5cm [°C] tt -20cm [°C] tt -100cm [°C] ff [km/h] ff [kn] fx [km/h] fx [kn] dd ppp [hPa] vv [km] sd [min] rr [mm]
18.01.2020 14:00:00 6,6 1,8 6,5 5,9 4,9 6,5 14 8 32 17 WSW 1027,6 55 6 0,0
18.01.2020 13:00:00 6,3 2,1 6,0 5,4 4,7 6,5 14 8 28 15 W 1027,9 65 2 0,1
18.01.2020 12:00:00 6,1 1,8 6,4 5,0 4,4 6,5 14 7 23 13 WSW 1028,3 54 3 0,0
18.01.2020 11:00:00 5,1 1,9 4,7 4,1 4,3 6,5 14 8 21 11 SW 1028,3 49 4 0,0
18.01.2020 10:00:00 4,7 1,7 3,6 3,2 4,3 6,5 14 8 26 14 WSW 1027,5 46 18 0,0
18.01.2020 09:00:00 3,9 1,8 2,9 2,5 4,4 6,6 11 6 15 8 WSW 1027,7 45 0 0,0
18.01.2020 08:00:00 2,6 1,1 0,1 2,5 4,6 6,6 6 4 8 4 SW 1027,8 43 0 0,0
18.01.2020 07:00:00 4,2 1,6 1,0 2,9 4,7 6,6 6 4 17 9 SSW 1027,7 49 0 0,0
18.01.2020 06:00:00 4,8 2,4 3,1 3,2 4,9 6,6 10 5 17 9 SW 1027,2 50 0 0,0
18.01.2020 05:00:00 5,3 2,8 3,8 3,6 5,0 6,6 12 6 17 9 SW 1026,6 46 0 0,0
18.01.2020 04:00:00 5,4 3,4 4,3 3,8 5,2 6,6 12 6 23 12 SW 1026,1 39 0 0,0
18.01.2020 03:00:00 6,0 3,9 4,9 4,0 5,3 6,6 16 8 23 12 SW 1025,7 41 0 0,0
18.01.2020 02:00:00 5,8 4,0 4,1 4,0 5,5 6,6 9 5 16 9 WSW 1024,9 42 0 0,0
18.01.2020 01:00:00 6,4 4,6 4,5 4,6 5,6 6,6 10 5 21 12 SW 1024,3 34 0 0,0
18.01.2020 00:00:00 7,4 5,1 6,1 5,4 5,7 6,6 16 8 33 18 WSW 1023,9 38 0 0,0
17.01.2020 23:00:00 8,1 5,7 7,2 5,7 5,6 6,6 23 12 31 17 SW 1023,1 40 0 0,0
17.01.2020 22:00:00 8,0 6,4 7,1 5,8 5,6 6,6 14 7 24 13 SW 1022,4 34 0 0,0
17.01.2020 21:00:00 8,0 6,7 7,0 5,8 5,5 6,6 15 8 26 14 SW 1021,8 30 0 0,0
17.01.2020 20:00:00 8,2 6,7 7,2 5,9 5,4 6,6 17 9 26 14 SW 1021,3 38 0 0,0
17.01.2020 19:00:00 8,3 6,8 7,3 5,8 5,3 6,6 18 10 23 13 SW 1020,8 31 0 0,1
17.01.2020 18:00:00 7,8 6,5 6,9 5,6 5,2 6,6 15 8 20 11 SSW 1020,4 12 0 0,1
17.01.2020 17:00:00 7,6 6,0 6,5 5,6 5,1 6,6 12 6 16 9 SSW 1020,0 20 0 0,2
17.01.2020 16:00:00 6,8 5,1 6,0 5,6 5,0 6,6 9 5 17 9 S 1019,7 15 0 0,3
17.01.2020 15:00:00 6,5 3,9 5,7 5,6 4,8 6,6 7 4 9 5 S 1019,4 21 0 0,0
17.01.2020 14:00:00 6,8 3,6 7,0 5,9 4,5 6,6 5 3 6 3 SSW 1019,4 31 0 0,0
17.01.2020 13:00:00 6,6 2,8 7,5 5,7 4,1 6,6 2 1 6 3 WSW 1019,9 33 4 0,0
17.01.2020 12:00:00 6,5 3,0 8,0 4,8 3,6 6,6 3 2 5 3 W 1020,3 45 6 0,0
17.01.2020 11:00:00 5,6 3,2 7,7 3,7 3,3 6,6 3 1 11 6 W 1021,1 34 41 0,0
17.01.2020 10:00:00 1,0 0,2 1,0 0,6 3,4 6,6 4 2 6 3 SSE 1022,0 12 47 0,0
17.01.2020 09:00:00 -0,9 -1,0 -2,2 0,6 3,6 6,6 3 1 5 3 SW 1021,6 18 6 0,0
17.01.2020 08:00:00 -1,4 -1,9 -3,5 0,7 3,8 6,5 0 0 6 3 N 1021,5 25 0 0,0
17.01.2020 07:00:00 -1,5 -1,9 -3,2 0,8 4,0 6,5 3 2 6 3 ENE 1021,8 19 0 0,0
17.01.2020 06:00:00 -1,2 -1,3 -2,7 0,9 4,3 6,5 4 2 5 3 ENE 1022,1 4,3 0 0,0
17.01.2020 05:00:00 -0,9 -1,1 -2,8 1,1 4,6 6,5 0 0 6 3 N 1022,6 22 0 0,0
17.01.2020 04:00:00 -0,9 -1,1 -3,1 1,5 4,9 6,5 2 1 5 3 E 1023,2 16 0 0,0
17.01.2020 03:00:00 -0,2 -0,3 -2,2 1,9 5,3 6,5 0 0 5 3 N 1023,7 25 0 0,0
17.01.2020 02:00:00 0,6 0,2 -1,6 2,4 5,6 6,4 4 2 6 4 SSE 1024,0 32 0 0,0
17.01.2020 01:00:00 1,0 0,7 -1,7 2,9 6,0 6,4 4 2 9 5 SSW 1024,1 25 0 0,0
17.01.2020 00:00:00 1,8 1,5 -0,5 3,4 6,3 6,4 3 1 6 3 NW 1024,2 31 0 0,0
16.01.2020 23:00:00 2,8 2,0 0,3 4,0 6,7 6,4 2 1 5 3 SE 1024,5 39 0 0,0
16.01.2020 22:00:00 4,6 3,2 0,9 4,7 7,1 6,4 2 1 11 6 E 1025,1 48 0 0,0
16.01.2020 21:00:00 5,5 3,1 2,6 5,4 7,5 6,4 9 5 12 7 ESE 1025,2 46 0 0,0
16.01.2020 20:00:00 8,7 4,4 3,1 6,1 7,9 6,4 7 4 9 5 ESE 1025,5 50 0 0,0
16.01.2020 19:00:00 9,5 4,8 3,4 7,1 8,3 6,4 6 4 13 7 SE 1025,4 52 0 0,0
16.01.2020 18:00:00 11,5 4,8 6,0 8,2 8,6 6,3 6 4 12 6 ESE 1025,7 56 0 0,0
16.01.2020 17:00:00 12,2 5,1 7,4 9,9 8,7 6,3 9 5 12 7 ENE 1025,8 57 37 0,0
16.01.2020 16:00:00 14,3 5,1 15,7 11,6 8,5 6,3 6 4 13 7 NNE 1026,0 56 60 0,0
16.01.2020 15:00:00 14,7 4,8 17,5 12,4 8,0 6,3 5 3 12 6 N 1026,3 75 60 0,0
16.01.2020 14:00:00 14,3 4,6 15,7 12,4 7,4 6,3 5 3 8 5 WNW 1026,8 66 60 0,0
16.01.2020 13:00:00 14,1 4,5 16,2 11,4 6,8 6,3 4 2 6 3 WNW 1027,5 59 60 0,0
16.01.2020 12:00:00 12,8 5,1 15,2 9,5 6,3 6,3 4 2 5 3 NW 1028,2 68 60 0,0
16.01.2020 11:00:00 10,9 4,1 13,3 7,5 6,0 6,3 4 2 5 3 NW 1029,0 75 56 0,0
16.01.2020 10:00:00 6,0 4,5 5,7 5,3 6,1 6,3 1 1 6 4 S 1029,4 49 10 0,0
16.01.2020 09:00:00 5,8 3,8 3,5 5,0 6,3 6,2 4 2 6 3 ESE 1029,2 55 7 0,0
16.01.2020 08:00:00 7,6 4,4 4,8 5,9 6,5 6,2 3 2 8 4 SE 1028,7 70 0 0,0
16.01.2020 07:00:00 9,5 5,2 5,0 6,5 6,5 6,2 8 4 9 5 SSW 1028,0 59 0 0,0
16.01.2020 06:00:00 10,1 5,4 7,6 6,8 6,6 6,2 5 3 11 6 S 1027,6 55 0 0,0
16.01.2020 05:00:00 10,6 5,0 9,2 6,9 6,5 6,2 9 5 11 6 SSW 1027,6 66 0 0,0
16.01.2020 04:00:00 10,6 5,0 9,0 7,0 6,5 6,2 8 4 12 7 SW 1027,2 65 0 0,0
16.01.2020 03:00:00 11,2 4,9 9,9 7,1 6,5 6,2 10 5 24 13 SW 1026,8 75 0 0,0
16.01.2020 02:00:00 12,0 4,4 10,8 7,2 6,4 6,2 16 8 27 14 SW 1026,1 58 0 0,0
16.01.2020 01:00:00 12,4 4,4 11,1 7,2 6,4 6,2 16 9 22 12 SW 1025,5 72 0 0,0
16.01.2020 00:00:00 12,2 4,7 11,0 7,1 6,3 6,2 19 11 35 19 SW 1025,0 72 0 0,0
15.01.2020 23:00:00 12,6 4,3 11,4 7,0 6,2 6,2 20 11 27 15 SW 1023,9 75 0 0,0
15.01.2020 22:00:00 12,2 4,2 11,0 6,7 6,2 6,2 17 9 26 14 SW 1023,0 61 0 0,0
15.01.2020 21:00:00 11,9 4,0 10,3 6,4 6,2 6,2 15 8 24 13 SW 1022,4 62 0 0,0
15.01.2020 20:00:00 11,4 3,9 9,8 6,3 6,3 6,2 19 10 29 15 SW 1021,9 64 0 0,0
15.01.2020 19:00:00 12,1 3,6 10,1 6,7 6,3 6,2 20 11 29 16 SSW 1021,1 59 0 0,0
15.01.2020 18:00:00 12,0 3,7 10,1 6,7 6,4 6,2 16 8 21 12 SSW 1020,3 59 0 0,0
15.01.2020 17:00:00 11,8 3,6 9,7 7,4 6,4 6,2 16 9 29 16 SW 1019,5 63 34 0,0
15.01.2020 16:00:00 12,8 3,8 12,0 8,6 6,2 6,2 20 11 36 19 SW 1018,9 62 60 0,0
15.01.2020 15:00:00 13,2 3,6 12,9 9,0 5,8 6,2 21 11 38 20 SW 1018,7 65 59 0,0
15.01.2020 14:00:00 13,4 3,0 13,7 9,0 5,3 6,2 25 13 35 19 SW 1018,2 49 60 0,0
15.01.2020 13:00:00 12,4 2,6 11,7 7,9 4,8 6,2 24 13 35 19 SW 1018,6 75 48 0,0
15.01.2020 12:00:00 11,8 3,0 12,7 6,9 4,2 6,2 6 4 12 7 SSW 1018,9 43 60 0,0
15.01.2020 11:00:00 9,5 2,0 10,4 4,9 3,9 6,2 7 4 10 6 SW 1019,0 37 60 0,0
15.01.2020 10:00:00 5,7 2,9 7,0 2,8 4,0 6,2 4 2 8 5 S 1019,0 66 60 0,0
15.01.2020 09:00:00 2,0 0,5 0,8 1,7 4,2 6,2 8 5 9 5 SE 1019,1 58 9 0,0
15.01.2020 08:00:00 1,6 0,2 -1,1 2,2 4,5 6,2 5 3 8 4 S 1018,7 60 0 0,0
15.01.2020 07:00:00 3,5 0,9 0,8 2,9 4,7 6,2 4 2 13 7 SE 1018,4 63 0 0,0
15.01.2020 06:00:00 5,4 1,9 1,2 3,6 4,8 6,2 8 4 10 5 S 1017,8 64 0 0,0
15.01.2020 05:00:00 6,2 2,2 4,6 4,1 4,8 6,2 6 3 9 5 ESE 1017,8 75 0 0,0
15.01.2020 04:00:00 5,9 2,1 4,1 4,0 4,9 6,2 4 2 10 5 SE 1017,9 59 0 0,0
15.01.2020 03:00:00 6,3 1,5 3,7 3,8 5,0 6,2 0 0 16 9 N 1017,7 64 0 0,0
15.01.2020 02:00:00 9,2 1,6 6,9 4,3 5,2 6,2 13 7 18 10 WSW 1017,3 62 0 0,0
15.01.2020 01:00:00 10,0 2,2 7,5 5,0 5,2 6,2 15 8 24 13 SW 1017,1 75 0 0,0
15.01.2020 00:00:00 11,4 2,0 9,6 5,3 5,2 6,2 21 12 36 19 SW 1016,9 63 0 0,0
14.01.2020 23:00:00 11,6 2,0 9,9 5,0 5,2 6,2 20 11 31 17 SW 1016,4 75 0 0,0
14.01.2020 22:00:00 10,8 2,5 8,8 5,0 5,2 6,2 16 9 25 14 SW 1016,3 67 0 0,0
14.01.2020 21:00:00 10,6 3,0 8,2 5,1 5,2 6,2 13 7 16 9 SSW 1016,3 58 0 0,0
14.01.2020 20:00:00 9,6 3,0 7,6 5,0 5,3 6,2 11 6 19 11 SW 1016,5 68 0 0,0
14.01.2020 19:00:00 10,3 2,6 8,2 5,1 5,4 6,2 15 8 21 12 SW 1016,4 74 0 0,0
14.01.2020 18:00:00 9,7 2,9 7,4 5,6 5,5 6,2 13 7 18 10 SSW 1016,3 60 0 0,0
14.01.2020 17:00:00 10,2 3,2 8,2 6,5 5,4 6,2 14 8 18 10 SW 1015,9 75 0 0,0
14.01.2020 16:00:00 10,9 2,8 9,9 7,3 5,1 6,2 11 6 23 13 SSW 1015,6 64 0 0,0
14.01.2020 15:00:00 11,7 0,7 10,7 7,3 4,7 6,2 16 9 30 16 SW 1015,5 48 0 0,0
14.01.2020 14:00:00 11,7 0,4 11,2 7,1 4,3 6,2 23 12 37 20 SW 1015,5 71 0 0,0
14.01.2020 13:00:00 11,9 0,1 11,7 6,5 3,7 6,2 26 14 38 20 SW 1015,5 64 0 0,0
14.01.2020 12:00:00 10,8 0,3 10,5 5,1 3,2 6,2 19 10 25 14 WSW 1015,6 67 0 0,0
14.01.2020 11:00:00 9,3 1,4 8,9 3,7 2,8 6,2 11 6 16 9 WSW 1015,9 75 11 0,0
14.01.2020 10:00:00 5,0 0,8 4,4 1,6 2,8 6,2 7 4 10 5 W 1015,9 55 0 0,0
14.01.2020 09:00:00 2,2 0,6 0,7 0,5 2,9 6,2 5 3 16 9 W 1016,1 50 0 0,0
14.01.2020 08:00:00 0,3 -0,4 -1,1 0,5 3,0 6,2 13 7 16 9 SE 1015,7 41 0 0,0
14.01.2020 07:00:00 -0,7 -1,4 -2,7 0,6 3,2 6,2 3 1 7 4 SSE 1015,5 24 0 0,0
14.01.2020 06:00:00 -0,2 -0,3 -2,2 0,8 3,5 6,2 0 0 7 4 N 1015,3 16 0 0,0
14.01.2020 05:00:00 0,3 -0,1 -1,7 1,2 3,7 6,2 4 2 8 4 SSW 1015,2 17 0 0,0
14.01.2020 04:00:00 1,0 0,6 -1,3 1,6 3,8 6,2 2 1 6 4 S 1015,2 8 0 0,0
14.01.2020 03:00:00 2,9 2,0 0,6 2,0 4,0 6,2 5 3 13 7 S 1016,1 22 0 0,0
14.01.2020 02:00:00 3,9 2,9 0,9 2,3 4,2 6,2 8 4 20 11 S 1016,6 26 0 0,0
14.01.2020 01:00:00 2,8 2,5 1,9 2,3 4,4 6,2 10 5 14 8 WNW 1016,5 14 0 0,0
14.01.2020 00:00:00 1,8 1,8 -0,5 2,8 4,5 6,2 5 3 8 5 S 1017,2 8 0 0,0
13.01.2020 23:00:00 3,2 2,9 2,6 3,4 4,6 6,2 4 2 6 4 ESE 1017,6 11 0 0,0
13.01.2020 22:00:00 2,7 2,4 2,4 3,3 4,8 6,3 0 0 6 3 N 1017,7 12 0 0,0
13.01.2020 21:00:00 2,0 1,7 0,9 3,1 5,0 6,3 4 2 6 3 ESE 1018,2 7 0 0,0
13.01.2020 20:00:00 3,7 2,9 0,4 3,7 5,3 6,3 0 0 10 5 N 1019,0 24 0 0,0
13.01.2020 19:00:00 3,1 2,3 1,6 4,2 5,5 6,3 6 4 10 6 ESE 1019,5 25 0 0,0
13.01.2020 18:00:00 4,0 2,7 2,0 4,9 5,7 6,3 3 2 9 5 E 1020,1 30 0 0,0
13.01.2020 17:00:00 6,6 3,7 4,3 6,1 5,7 6,3 3 1 9 5 NE 1020,2 37 24 0,0
13.01.2020 16:00:00 7,8 4,0 7,7 7,2 5,6 6,3 5 3 11 6 WSW 1020,1 40 55 0,0
13.01.2020 15:00:00 7,6 4,2 9,3 7,3 5,3 6,3 9 5 15 8 S 1020,4 45 18 0,0
13.01.2020 14:00:00 7,1 4,0 7,7 7,0 5,0 6,3 5 3 8 5 S 1021,4 33 4 0,0
13.01.2020 13:00:00 6,6 3,7 7,0 6,3 4,7 6,3 5 3 10 6 SSW 1022,3 31 0 0,0
13.01.2020 12:00:00 6,5 3,3 7,0 5,7 4,4 6,3 4 2 9 5 WSW 1023,0 27 0 0,0
13.01.2020 11:00:00 5,6 3,1 5,5 4,8 4,2 6,3 7 4 10 6 S 1023,9 26 0 0,0
13.01.2020 10:00:00 5,0 3,0 4,7 4,1 4,2 6,3 6 3 9 5 SW 1024,2 19 0 0,0
13.01.2020 09:00:00 4,4 2,4 4,0 3,6 4,2 6,4 3 2 10 5 SSW 1024,6 28 0 0,0
13.01.2020 08:00:00 4,2 2,6 3,6 3,6 4,2 6,4 5 3 6 3 WSW 1024,7 23 0 0,0
13.01.2020 07:00:00 4,6 2,5 3,5 3,7 4,1 6,4 3 2 6 4 S 1025,2 30 0 0,0
13.01.2020 06:00:00 4,8 2,5 4,2 3,7 4,1 6,4 4 2 8 4 WSW 1025,7 33 0 0,0
13.01.2020 05:00:00 4,9 1,9 4,0 3,7 4,1 6,4 5 3 11 6 S 1026,3 41 0 0,0
13.01.2020 04:00:00 4,8 1,9 4,2 3,7 4,1 6,4 6 3 9 5 S 1027,0 37 0 0,0
13.01.2020 03:00:00 4,8 2,0 4,1 3,6 4,1 6,4 4 2 9 5 W 1027,5 34 0 0,0
13.01.2020 02:00:00 4,9 1,7 4,4 3,6 4,0 6,5 6 3 14 7 WSW 1027,6 42 0 0,0
13.01.2020 01:00:00 5,1 1,5 4,6 3,5 4,0 6,5 10 6 19 10 WSW 1027,8 43 0 0,0
13.01.2020 00:00:00 5,2 1,6 4,5 3,6 4,0 6,5 9 5 17 9 SW 1028,1 46 0 0,0
12.01.2020 23:00:00 5,2 1,4 4,8 3,6 3,9 6,5 14 8 26 14 WSW 1028,4 42 0 0,0
12.01.2020 22:00:00 5,5 1,4 5,0 3,5 3,9 6,5 18 10 27 15 SW 1028,6 39 0 0,0
12.01.2020 21:00:00 5,6 1,2 5,0 3,4 3,9 6,5 19 11 28 15 SW 1028,5 46 0 0,0
12.01.2020 20:00:00 5,4 0,9 4,8 3,4 3,8 6,5 19 11 29 15 WSW 1028,5 47 0 0,0
12.01.2020 19:00:00 5,4 0,8 4,9 3,3 3,8 6,6 20 11 33 18 SW 1028,4 48 0 0,0
12.01.2020 18:00:00 5,3 0,7 4,8 3,3 3,7 6,6 19 11 32 17 SW 1027,8 47 0 0,0
12.01.2020 17:00:00 4,8 1,0 4,3 3,4 3,7 6,6 20 11 29 15 SW 1027,5 42 0 0,0
12.01.2020 16:00:00 4,8 0,7 4,4 3,4 3,5 6,6 18 10 31 17 SSW 1028,0 39 0 0,0
12.01.2020 15:00:00 4,6 0,6 4,4 3,6 3,3 6,6 23 13 35 19 SW 1028,3 43 0 0,0
12.01.2020 14:00:00 4,5 0,7 4,5 3,7 3,0 6,6 29 16 37 20 SW 1028,4 49 0 0,0

tt = temperature
td = dewpoint
tt 5cm = temperature 5cm
tt -5cm = temperature -5cm
tt -20cm = temperature -20cm
tt -100cm = temperature -100cm
ff = wind speed
fx = gusts
dd = wind direction
ppp = reduced air pressure
vv = visibility
sd = sunshine duration
rr = precipitation

Next stations